Weather History for Claxton, GA

Change the Weather History Date:

Thursday, January 17, 2013

  Actual Average (KSAV) Record (KSAV)
Temperature  
Mean Temperature 60 °F 49 °F  
Max Temperature 77 °F 60 °F 81 °F (1943)
Min Temperature 42 °F 38 °F 16 °F (1977)
Degree Days  
Heating Degree Days 6 16  
Month to date heating degree days 272  
Since 1 July heating degree days 962  
Cooling Degree Days 0 0  
Month to date cooling degree days 0  
Year to date cooling degree days 0  
Growing Degree Days 10 (Base 50)    
Moisture  
Dew Point 54 °F    
Average Humidity 85    
Maximum Humidity 100    
Minimum Humidity 61    
Precipitation  
Precipitation 0.00 in 0.13 in 0.96 in (1964)
Month to date precipitation 1.93  
Year to date precipitation 1.93  
Sea Level Pressure  
Sea Level Pressure 29.95 in    
Wind  
Wind Speed 4 mph (WSW)    
Max Wind Speed 18 mph    
Max Gust Speed 37 mph    
Visibility 9 miles    
Events Rain    
T = Trace of Precipitation, MM = Missing Value Source: NWS Daily Summary

Daily Weather History Graph

Daily Weather History Graph

Search for Another Location

Airport:

Trip Planner

Search our weather history database for the weather conditions in past years. The results will help you decide how hot, cold, wet, or windy it might be!

Date:

Astronomy

Jan. 17, 2013 Rise Set
Actual Time 7:28 AM EST 5:47 PM EST
Civil Twilight 7:01 AM EST 6:13 PM EST
Nautical Twilight 6:31 AM EST 6:43 PM EST
Astronomical Twilight 6:02 AM EST 7:13 PM EST
Moon 10:59 AM EST (1/17) No Moon Set
Length of Visible Light 11h 12m
Length of Day
10h 19m
Waxing Crescent, 37% of the Moon is Illuminated
Jan 17
Waxing Crescent
Jan 18
First Quarter
Jan 26
Full
Feb 3
Last Quarter
Feb 10
New

Hourly Weather History & Observations

Time (EST) Temp. Windchill Dew Point Humidity Pressure Visibility Wind Dir Wind Speed Gust Speed Precip Events Conditions
12:15 AM 62.6 °F - 60.8 °F 94% 29.99 in 10.0 mi Calm Calm - N/A   Clear
12:35 AM 64.4 °F - 62.6 °F 94% 29.98 in 10.0 mi Calm Calm - N/A   Clear
12:55 AM 64.4 °F - 62.6 °F 94% 29.99 in 10.0 mi Calm Calm - N/A   Clear
1:15 AM 64.4 °F - 60.8 °F 88% 29.99 in 10.0 mi Calm Calm - N/A   Clear
1:35 AM 62.6 °F - 62.6 °F 100% 29.99 in 10.0 mi Calm Calm - N/A   Clear
2:15 AM 62.6 °F - 62.6 °F 100% 29.99 in 10.0 mi Calm Calm - N/A   Clear
2:35 AM 62.6 °F - 62.6 °F 100% 29.98 in 10.0 mi SSW 3.5 mph - N/A   Clear
2:55 AM 64.4 °F - 62.6 °F 94% 29.97 in 10.0 mi WSW 3.5 mph - N/A   Clear
3:15 AM 64.4 °F - 62.6 °F 94% 29.97 in 10.0 mi Calm Calm - N/A   Scattered Clouds
3:35 AM 64.4 °F - 62.6 °F 94% 29.97 in 10.0 mi Calm Calm - N/A   Mostly Cloudy
3:55 AM 64.4 °F - 64.4 °F 100% 29.96 in 10.0 mi Calm Calm - N/A   Scattered Clouds
4:15 AM 64.4 °F - 62.6 °F 94% 29.95 in 10.0 mi Calm Calm - N/A   Scattered Clouds
4:35 AM 64.4 °F - 62.6 °F 94% 29.95 in 10.0 mi Calm Calm - N/A   Clear
4:55 AM 64.4 °F - 62.6 °F 94% 29.95 in 10.0 mi Calm Calm - N/A   Mostly Cloudy
5:15 AM 62.6 °F - 62.6 °F 100% 29.94 in 10.0 mi Calm Calm - N/A   Scattered Clouds
5:35 AM 60.8 °F - 60.8 °F 100% 29.95 in 1.5 mi Calm Calm - N/A   Scattered Clouds
5:55 AM 60.8 °F - 60.8 °F 100% 29.95 in 5.0 mi Calm Calm - N/A   Clear
6:15 AM 60.8 °F - 60.8 °F 100% 29.94 in 10.0 mi Calm Calm - N/A   Mostly Cloudy
6:35 AM 62.6 °F - 62.6 °F 100% 29.94 in 10.0 mi Calm Calm - N/A   Overcast
6:55 AM 62.6 °F - 60.8 °F 94% 29.94 in 10.0 mi Calm Calm - N/A   Mostly Cloudy
7:15 AM 62.6 °F - 60.8 °F 94% 29.94 in 10.0 mi Calm Calm - N/A   Mostly Cloudy
7:35 AM 62.6 °F - 60.8 °F 94% 29.94 in 10.0 mi Calm Calm - N/A   Mostly Cloudy
7:55 AM 62.6 °F - 60.8 °F 94% 29.94 in 10.0 mi Calm Calm - N/A   Overcast
8:15 AM 62.6 °F - 60.8 °F 94% 29.94 in 10.0 mi Calm Calm - N/A   Overcast
8:35 AM 64.4 °F - 60.8 °F 88% 29.93 in 10.0 mi Calm Calm - N/A   Overcast
8:55 AM 64.4 °F - 62.6 °F 94% 29.93 in 10.0 mi SSW 4.6 mph - N/A   Overcast
9:15 AM 66.2 °F - 60.8 °F 83% 29.93 in 10.0 mi SSE 3.5 mph - N/A   Overcast
9:35 AM 68.0 °F - 62.6 °F 83% 29.92 in 10.0 mi Calm Calm - N/A   Mostly Cloudy
9:55 AM 69.8 °F - 62.6 °F 78% 29.92 in 10.0 mi South 4.6 mph - N/A   Mostly Cloudy
10:15 AM 69.8 °F - 62.6 °F 78% 29.91 in 10.0 mi South 9.2 mph - N/A   Mostly Cloudy
10:35 AM 71.6 °F - 62.6 °F 73% 29.90 in 10.0 mi South 6.9 mph - N/A   Scattered Clouds
10:55 AM 71.6 °F - 62.6 °F 73% 29.88 in 10.0 mi South 10.4 mph 18.4 mph N/A   Scattered Clouds
11:15 AM 73.4 °F - 62.6 °F 69% 29.87 in 10.0 mi South 9.2 mph 16.1 mph N/A   Mostly Cloudy
11:35 AM 77.0 °F - 62.6 °F 61% 29.85 in 10.0 mi South 10.4 mph 18.4 mph N/A   Mostly Cloudy
11:55 AM 75.2 °F - 62.6 °F 65% 29.84 in 10.0 mi South 10.4 mph 19.6 mph N/A   Mostly Cloudy
12:15 PM 73.4 °F - 62.6 °F 69% 29.83 in 10.0 mi South 8.1 mph 16.1 mph N/A   Overcast
12:35 PM 71.6 °F - 64.4 °F 78% 29.84 in 10.0 mi West 16.1 mph 26.5 mph N/A   Overcast
12:55 PM 59.0 °F - 59.0 °F 100% 29.85 in 4.0 mi West 11.5 mph 19.6 mph N/A Rain Light Rain
1:15 PM 59.0 °F - 57.2 °F 94% 29.85 in 5.0 mi WSW 13.8 mph 18.4 mph N/A Rain Light Rain
1:35 PM 57.2 °F - 55.4 °F 94% 29.85 in 10.0 mi West 13.8 mph 26.5 mph N/A Rain Light Rain
1:55 PM 55.4 °F - 55.4 °F 100% 29.86 in 4.0 mi West 9.2 mph 20.7 mph N/A   Drizzle
2:15 PM 55.4 °F - 53.6 °F 94% 29.87 in 10.0 mi WSW 12.7 mph 24.2 mph N/A   Drizzle
2:35 PM 53.6 °F - 53.6 °F 100% 29.87 in 7.0 mi WSW 11.5 mph 24.2 mph N/A   Drizzle
2:55 PM 51.8 °F - 50.0 °F 94% 29.89 in 7.0 mi WSW 10.4 mph 23.0 mph N/A Rain Rain
3:15 PM 50.0 °F - 50.0 °F 100% 29.89 in 5.0 mi WSW 10.4 mph 18.4 mph N/A Rain Rain
3:35 PM 50.0 °F - 50.0 °F 100% 29.88 in 10.0 mi WSW 4.6 mph - N/A   Overcast
3:55 PM 51.8 °F - 50.0 °F 94% 29.88 in 10.0 mi SW 3.5 mph - N/A   Overcast
4:15 PM 53.6 °F - 50.0 °F 88% 29.88 in 10.0 mi SW 6.9 mph - N/A   Mostly Cloudy
4:35 PM 53.6 °F - 48.2 °F 82% 29.88 in 10.0 mi WSW 5.8 mph - N/A   Scattered Clouds
4:55 PM 53.6 °F - 46.4 °F 77% 29.88 in 10.0 mi WSW 3.5 mph - N/A   Scattered Clouds
5:15 PM 53.6 °F - 46.4 °F 77% 29.89 in 10.0 mi West 6.9 mph - N/A   Mostly Cloudy
5:35 PM 53.6 °F - 44.6 °F 72% 29.90 in 10.0 mi WSW 12.7 mph 18.4 mph N/A   Mostly Cloudy
5:55 PM 51.8 °F - 42.8 °F 71% 29.93 in 10.0 mi West 15.0 mph 32.2 mph N/A   Mostly Cloudy
6:15 PM 50.0 °F - 39.2 °F 66% 29.95 in 10.0 mi West 18.4 mph 36.8 mph N/A   Mostly Cloudy
6:35 PM 46.4 °F 41.1 °F 37.4 °F 71% 29.97 in 10.0 mi West 11.5 mph 27.6 mph N/A   Scattered Clouds
6:55 PM 46.4 °F 40.7 °F 37.4 °F 71% 29.98 in 10.0 mi West 12.7 mph 21.9 mph N/A   Mostly Cloudy
7:15 PM 46.4 °F 40.7 °F 37.4 °F 71% 30.00 in 10.0 mi West 12.7 mph 20.7 mph N/A   Overcast
7:35 PM 46.4 °F 40.1 °F 37.4 °F 71% 30.01 in 10.0 mi West 15.0 mph 27.6 mph N/A   Overcast
7:55 PM 46.4 °F 40.1 °F 35.6 °F 66% 30.03 in 10.0 mi West 15.0 mph 25.3 mph N/A   Overcast
8:15 PM 46.4 °F 41.5 °F 35.6 °F 66% 30.05 in 10.0 mi West 10.4 mph 17.3 mph N/A   Overcast
8:35 PM 46.4 °F 41.5 °F 37.4 °F 71% 30.07 in 10.0 mi West 10.4 mph 19.6 mph N/A   Overcast
9:15 PM 44.6 °F 37.2 °F 35.6 °F 71% 30.10 in 10.0 mi West 17.3 mph 28.8 mph N/A   Overcast
9:35 PM 42.8 °F 35.1 °F 33.8 °F 70% 30.11 in 10.0 mi WNW 16.1 mph 23.0 mph N/A   Mostly Cloudy
9:55 PM 42.8 °F 37.0 °F 33.8 °F 70% 30.12 in 10.0 mi WNW 10.4 mph 17.3 mph N/A   Scattered Clouds
10:15 PM 42.8 °F 36.6 °F 35.6 °F 76% 30.13 in 10.0 mi WNW 11.5 mph - N/A   Mostly Cloudy
10:35 PM 42.8 °F 37.5 °F 35.6 °F 76% 30.13 in 10.0 mi West 9.2 mph - N/A   Mostly Cloudy
10:55 PM 42.8 °F 37.0 °F 35.6 °F 76% 30.14 in 10.0 mi WNW 10.4 mph - N/A   Overcast